This is the latest recevied weather packets stored in our database for station/object OM1ATS-6. If no packets are shown the sender has not sent any weather packets the latest 10 day(s).
| Time | Temp. | Humidity | Pressure | Rain* | Wind** | Luminosity | Snow |
|---|---|---|---|---|---|---|---|
| 1777913830 | 25° C | 30% | 1015.9 hPa | - | - | - | - |
| 1777913529 | 25° C | 30% | 1015.9 hPa | - | - | - | - |
| 1777913230 | 25.56° C | 29% | 1015.9 hPa | - | - | - | - |
| 1777912930 | 25.56° C | 29% | 1015.9 hPa | - | - | - | - |
| 1777912630 | 25.56° C | 29% | 1016.3 hPa | - | - | - | - |
| 1777912329 | 26.11° C | 29% | 1016.3 hPa | - | - | - | - |
| 1777912030 | 26.67° C | 28% | 1016.3 hPa | - | - | - | - |
| 1777911729 | 26.67° C | 28% | 1016.3 hPa | - | - | - | - |
| 1777911430 | 26.67° C | 28% | 1016.5 hPa | - | - | - | - |
| 1777911129 | 26.67° C | 28% | 1016.5 hPa | - | - | - | - |
| 1777910830 | 26.67° C | 29% | 1016.5 hPa | - | - | - | - |
| 1777910530 | 26.67° C | 29% | 1016.5 hPa | - | - | - | - |
| 1777910230 | 26.67° C | 29% | 1016.6 hPa | - | - | - | - |
| 1777909929 | 26.67° C | 28% | 1016.6 hPa | - | - | - | - |
| 1777909630 | 26.67° C | 28% | 1016.6 hPa | - | - | - | - |
| 1777909330 | 27.22° C | 28% | 1016.6 hPa | - | - | - | - |
| 1777909030 | 27.22° C | 27% | 1016.6 hPa | - | - | - | - |
| 1777908729 | 27.78° C | 27% | 1016.6 hPa | - | - | - | - |
| 1777908429 | 27.22° C | 28% | 1016.6 hPa | - | - | - | - |
| 1777908130 | 27.22° C | 29% | 1016.6 hPa | - | - | - | - |
| 1777907830 | 27.22° C | 29% | 1017.1 hPa | - | - | - | - |
| 1777907529 | 27.22° C | 28% | 1017.1 hPa | - | - | - | - |
| 1777907230 | 27.22° C | 29% | 1017.1 hPa | - | - | - | - |
| 1777906930 | 27.22° C | 30% | 1017.1 hPa | - | - | - | - |
| 1777906630 | 27.22° C | 30% | 1017 hPa | - | - | - | - |
* Rain since midnight (hover to see other rain measurements)
** Current wind speed in m/s (hover to see current wind gust speed)